TimeEST,TemperatureF,Dew PointF,Humidity,Sea Level PressureIn,VisibilityMPH,Wind Direction,Wind SpeedMPH,Gust SpeedMPH,PrecipitationIn,Events,Conditions,WindDirDegrees,DateUTC
12:14 AM,37.0,28.8,72,29.67,10.0,SSW,11.5,-,N/A,,Clear,200,2014-01-13 05:14:00
12:35 AM,39.4,28.9,66,29.66,10.0,SSW,12.7,21.9,N/A,,Clear,200,2014-01-13 05:35:00
12:54 AM,40.1,28.9,64,29.66,10.0,SSW,13.8,19.6,N/A,,Clear,200,2014-01-13 05:54:00
1:15 AM,39.4,29.3,67,29.66,10.0,SSW,13.8,20.7,N/A,,Clear,210,2014-01-13 06:15:00
1:34 AM,39.2,29.3,68,29.65,10.0,SSW,12.7,19.6,N/A,,Clear,200,2014-01-13 06:34:00
1:55 AM,39.2,29.3,68,29.65,10.0,SSW,10.4,16.1,N/A,,Clear,200,2014-01-13 06:55:00
2:15 AM,38.7,29.3,69,29.65,10.0,SSW,9.2,-,N/A,,Clear,200,2014-01-13 07:15:00
2:34 AM,38.5,29.3,70,29.65,10.0,SSW,9.2,-,N/A,,Clear,200,2014-01-13 07:34:00
2:55 AM,38.3,29.3,70,29.64,10.0,South,9.2,-,N/A,,Clear,190,2014-01-13 07:55:00
3:15 AM,38.3,29.3,70,29.64,10.0,South,10.4,-,N/A,,Clear,190,2014-01-13 08:15:00
3:35 AM,38.3,29.3,70,29.63,10.0,South,10.4,-,N/A,,Clear,190,2014-01-13 08:35:00
3:55 AM,38.3,29.7,71,29.63,10.0,South,11.5,-,N/A,,Clear,190,2014-01-13 08:55:00
4:15 AM,38.3,29.5,71,29.62,10.0,South,9.2,-,N/A,,Clear,190,2014-01-13 09:15:00
4:35 AM,37.9,29.3,71,29.61,10.0,South,8.1,-,N/A,,Clear,180,2014-01-13 09:35:00
4:55 AM,37.4,29.3,73,29.61,10.0,South,8.1,-,N/A,,Clear,180,2014-01-13 09:55:00
5:14 AM,37.0,29.3,74,29.60,10.0,South,8.1,-,N/A,,Clear,180,2014-01-13 10:14:00
5:35 AM,36.5,29.3,75,29.60,10.0,South,8.1,-,N/A,,Clear,180,2014-01-13 10:35:00
5:55 AM,36.5,29.7,76,29.59,10.0,South,8.1,-,N/A,,Clear,180,2014-01-13 10:55:00
6:14 AM,36.5,29.7,76,29.59,10.0,South,9.2,-,N/A,,Clear,180,2014-01-13 11:14:00
6:35 AM,36.7,29.7,76,29.58,10.0,South,9.2,-,N/A,,Clear,180,2014-01-13 11:35:00
6:55 AM,36.7,29.8,76,29.58,10.0,South,10.4,-,N/A,,Clear,180,2014-01-13 11:55:00
7:14 AM,37.4,29.8,74,29.58,10.0,South,9.2,-,N/A,,Clear,180,2014-01-13 12:14:00
7:35 AM,37.2,29.8,75,29.58,10.0,South,9.2,-,N/A,,Clear,180,2014-01-13 12:35:00
7:55 AM,37.4,30.0,75,29.58,10.0,South,8.1,-,N/A,,Clear,170,2014-01-13 12:55:00
8:15 AM,36.5,29.8,77,29.59,10.0,South,9.2,-,N/A,,Clear,170,2014-01-13 13:15:00
8:35 AM,36.7,30.0,77,29.58,10.0,South,6.9,-,N/A,,Clear,180,2014-01-13 13:35:00
8:55 AM,36.5,30.0,77,29.57,10.0,South,5.8,-,N/A,,Clear,170,2014-01-13 13:55:00
9:15 AM,36.5,30.2,78,29.58,10.0,South,8.1,-,N/A,,Clear,170,2014-01-13 14:15:00
9:35 AM,36.9,30.2,77,29.58,10.0,South,9.2,-,N/A,,Clear,170,2014-01-13 14:35:00
9:54 AM,38.1,30.7,75,29.57,10.0,South,9.2,-,N/A,,Clear,180,2014-01-13 14:54:00
10:15 AM,38.5,30.9,74,29.56,10.0,South,6.9,-,N/A,,Clear,170,2014-01-13 15:15:00
10:35 AM,39.4,31.1,72,29.56,10.0,South,6.9,-,N/A,,Clear,190,2014-01-13 15:35:00
10:54 AM,39.7,31.1,71,29.57,10.0,South,6.9,-,N/A,,Scattered Clouds,180,2014-01-13 15:54:00
11:15 AM,40.1,31.5,71,29.56,10.0,South,8.1,-,N/A,,Mostly Cloudy,170,2014-01-13 16:15:00
11:35 AM,40.5,31.8,71,29.56,10.0,South,5.8,-,N/A,,Mostly Cloudy,190,2014-01-13 16:35:00
11:55 AM,41.2,32.0,70,29.55,10.0,South,8.1,-,N/A,,Scattered Clouds,190,2014-01-13 16:55:00
12:15 PM,42.3,32.0,67,29.54,10.0,SSW,6.9,-,N/A,,Scattered Clouds,200,2014-01-13 17:15:00
12:34 PM,43.7,32.2,64,29.54,10.0,SSW,11.5,-,N/A,,Mostly Cloudy,200,2014-01-13 17:34:00
12:55 PM,44.4,32.4,63,29.52,10.0,SSW,9.2,16.1,N/A,,Scattered Clouds,210,2014-01-13 17:55:00
1:15 PM,44.8,32.5,62,29.52,10.0,SW,12.7,-,N/A,,Scattered Clouds,220,2014-01-13 18:15:00
1:34 PM,44.2,32.4,63,29.51,10.0,SSW,9.2,-,N/A,,Mostly Cloudy,210,2014-01-13 18:34:00
1:55 PM,43.7,32.7,65,29.51,10.0,SW,9.2,-,N/A,,Overcast,230,2014-01-13 18:55:00
2:15 PM,43.3,32.9,67,29.51,10.0,SSW,9.2,-,N/A,,Overcast,210,2014-01-13 19:15:00
2:35 PM,43.2,32.9,67,29.51,10.0,SSW,9.2,-,N/A,,Overcast,200,2014-01-13 19:35:00
2:55 PM,43.7,33.1,66,29.51,10.0,SW,9.2,-,N/A,,Overcast,220,2014-01-13 19:55:00
3:15 PM,43.7,33.3,67,29.52,10.0,SW,8.1,-,N/A,,Overcast,220,2014-01-13 20:15:00
3:35 PM,43.7,33.4,67,29.53,10.0,SW,8.1,-,N/A,,Overcast,220,2014-01-13 20:35:00
3:55 PM,43.7,33.4,67,29.53,10.0,SSW,10.4,-,N/A,,Overcast,210,2014-01-13 20:55:00
4:14 PM,43.3,33.3,68,29.53,10.0,SW,10.4,-,N/A,,Overcast,230,2014-01-13 21:14:00
4:35 PM,42.8,33.4,70,29.54,10.0,SW,6.9,-,N/A,,Mostly Cloudy,220,2014-01-13 21:35:00
4:55 PM,42.8,33.4,70,29.55,10.0,SW,8.1,-,N/A,,Mostly Cloudy,230,2014-01-13 21:55:00
5:14 PM,41.9,33.3,71,29.55,10.0,SW,5.8,-,N/A,,Scattered Clouds,230,2014-01-13 22:14:00
5:35 PM,41.2,33.3,73,29.56,10.0,SW,5.8,-,N/A,,Scattered Clouds,220,2014-01-13 22:35:00
5:55 PM,40.5,33.3,75,29.56,10.0,Calm,Calm,-,N/A,,Clear,0,2014-01-13 22:55:00
6:14 PM,39.9,33.3,77,29.56,10.0,Calm,Calm,-,N/A,,Clear,0,2014-01-13 23:14:00
6:35 PM,39.2,33.1,79,29.57,10.0,SSW,4.6,-,N/A,,Clear,200,2014-01-13 23:35:00
6:55 PM,39.0,33.6,81,29.57,10.0,SSW,5.8,-,N/A,,Clear,200,2014-01-13 23:55:00
7:15 PM,39.6,33.8,80,29.58,10.0,SSW,8.1,-,N/A,,Clear,210,2014-01-14 00:15:00
7:35 PM,39.7,33.8,79,29.59,10.0,SW,6.9,-,N/A,,Clear,220,2014-01-14 00:35:00
7:54 PM,39.2,33.4,80,29.59,10.0,SW,8.1,-,N/A,,Clear,230,2014-01-14 00:54:00
8:15 PM,38.8,33.1,80,29.60,10.0,WSW,9.2,-,N/A,,Clear,240,2014-01-14 01:15:00
8:35 PM,37.8,32.9,83,29.60,10.0,WSW,9.2,-,N/A,,Clear,250,2014-01-14 01:35:00
8:55 PM,37.4,32.2,81,29.61,10.0,WSW,11.5,-,N/A,,Clear,250,2014-01-14 01:55:00
9:15 PM,36.5,32.0,84,29.62,10.0,WSW,10.4,-,N/A,,Clear,250,2014-01-14 02:15:00
9:34 PM,35.8,32.0,86,29.62,10.0,West,10.4,-,N/A,,Clear,260,2014-01-14 02:34:00
9:55 PM,35.6,32.0,87,29.62,10.0,West,11.5,-,N/A,,Scattered Clouds,260,2014-01-14 02:55:00
10:15 PM,34.7,32.0,90,29.63,10.0,West,10.4,-,N/A,,Clear,260,2014-01-14 03:15:00
10:35 PM,34.3,32.0,91,29.63,10.0,West,8.1,-,N/A,,Scattered Clouds,260,2014-01-14 03:35:00
10:55 PM,34.0,32.0,92,29.64,10.0,West,8.1,-,N/A,,Mostly Cloudy,260,2014-01-14 03:55:00
11:14 PM,33.1,31.8,95,29.64,10.0,WSW,6.9,-,N/A,,Scattered Clouds,250,2014-01-14 04:14:00
11:35 PM,34.7,32.0,90,29.65,10.0,West,11.5,17.3,N/A,,Mostly Cloudy,260,2014-01-14 04:35:00
11:55 PM,34.7,31.1,87,29.65,10.0,West,10.4,-,N/A,,Overcast,260,2014-01-14 04:55:00